STARLINK-2395, 47814

Orbit data source: Space-Track

STARLINK-2395, 47814 is a payload satellite owned by SpaceX/Seattle (US) in LEO that was launched on Thu, 11 Mar 2021 UTC via an FALCON 9 launch vehicle from the Air Force Eastern Test Range (AFETR). Payload-class satellites include a variety of spacecraft equipped with specific instruments for various scientific and technological missions. These include communications satellites like Starlink; space stations such as the ISS; scientific satellites like the Hubble; Earth observation satellites from companies like Planet Labs, Umbra, and HawkEye 360; GPS; miniature CubeSats for education and research; and military/defense satellites.

Loading next visibility...
Identifier
47814, 2021-018AD
Orbit
LEO
Country
Flag of USUS
Related business
Manufacturer
SpaceX/Seattle
Mission
Operational Commercial Communications
Bus & Motor
STARLINK, Unknown motor
Mass
260 kg wet, ~248 kg dry
Launch date (UTC)
2021-03-11 (5 years ago)
Launch vehicle
FALCON 9
Launch site
Air Force Eastern Test Range (AFETR)
Object type
Payload
Rocket body
Debris
Shape & HBR
Box + 1 Pan, 10.1 m
Radar Cross Section
13.562 m², Large (>1 m²)

Expand to show TLE details & history
Last TLE update: 4 hours ago

TLE from 4 hours ago
0 STARLINK-2395
1 47814U 21018AD  25292.96425515  .00004305  00000-0  30755-3 0  9998
2 47814  53.0539 163.3625 0001341  99.1449 260.9692 15.06418580255444
Epoch: 2025-10-19T23:08Z
TLE epoch observation values (Epoch: 2025-10-19T23:08:31.644Z)
Latitude
-0.00002°
Longitude
147.55726°
Altitude
548.18 km
Speed
7.589 km/s
True Right ascension
10h 53m 26s
True Declination
0° 00' 00"
Sunlit
Object was in daylight at epoch
Visualization orbit readout
Latitude
Unknown
Longitude
Unknown
Altitude
Unknown
Speed
Unknown
Apparent Right ascension
Unknown
Apparent Declination
Unknown
Sunlit
N/A
Visualization observer readout
Local Sidereal Time
22:06:24
Azimuth
Unknown
Elevation
Unknown
Doppler factor
Unknown
Orbital elements
Apogee altitude
548.354 km
Perigee altitude
546.497 km
Semi-major axis
6,925.562 km
Eccentricity
0.00013
Inclination
53.0539°
RAAN
163.3625°
Arg. of periapsis
99.1449°
True anomaly
260.95402°
Mean anomaly
260.9692°
Eccentric anomaly
260.96161°
Mean motion
3.76583 °/min
Orbital period
95.6 mins
BSTAR
0.00030755
Loading maneuver chart data...
Computing Atmospheric mass density...

Documentation

Showing up to 5 results
|